sat.trackr.live / text

‹ back to catalog

STARLINK-35310

NORAD 66183 · 2025-243G

PAYLOAD ACTIVE UNKNOWN

§ Identity

Operator
Country
US
Launch date
2025-10-26
Launch site
AFETR
Launch vehicle
Mass (kg)
RCS (m²)

Purposes: comms

External: N2YO · Heavens-Above · Gunter

§ Orbital elements

Epoch: 2026-05-25T00:00:02.592864Z

Period
94.11 min
Inclination
53.1577°
Eccentricity
0.0001212
Mean motion
15.30201701 rev/d
Perigee alt
474.4 km
Apogee alt
476.0 km
Semi-major
6,853.3 km
B*
8.1201e-4
RAAN
251.0548°
Arg perigee
88.0818°
Mean anomaly
272.0321°
Rev number
3,233

§ Raw data

STARLINK-353101 66183U 25243G   26145.00003001  .00023768  00000+0  81201-3 0  99922 66183  53.1577 251.0548 0001212  88.0818 272.0321 15.30201701 32336

JSON: /api/v1/satellites/66183 · /tle

For live sub-satellite position, see the globe view (requires WebGL).

§ Visibility from observer

Set your observer location to see the next 7 days of passes ≥ 10°. The values pass through the URL so the page stays shareable.

No JS? Fill the form by hand. The geolocation button needs JavaScript.